Le jogging du Père Noël à Rhisnes (10.50 km)

samedi 16 décembre 2017

Vous pouvez trouver Le classement original sur : http://www.jogging.org  
 
JOGGING ET SEMI DU PÈRE NOËL - RHISNES
DISTANCE 10.48 km
samedi 16 décembre 2017
 
Place dos NOM Catégorie Pl/cat temps temps/km Vitesse
01:00:00              
1 2438 CHRISTOPHER VANLEENDERT SENIOR H 1 00:37:53 03:37 16.60
2 1397 ANTOINE PENIN SENIOR H 2 00:38:20 03:39 16.41
3 1247 FABRICE LONNOY SENIOR H 3 00:38:54 03:43 16.17
4 2376 CHARLOTTE MONFILS SENIOR D 1 00:41:21 03:57 15.21
5 2377 SEBASTIEN BERTHE SENIOR H 4 00:41:22 03:57 15.20
6 492 SEBASTIEN MAHIA SENIOR H 5 00:41:22 03:57 15.20
7 2306 DYLAN ZIMMER SENIOR H 6 00:43:20 04:08 14.51
8 2381 JEAN-POL MIGNON VETERAN 1 1 00:44:39 04:16 14.08
9 1389 VICTOR DE COCQUEAU ESPOIR H 1 00:45:10 04:19 13.92
10 1388 PIERRE DE COCQUEAU ESPOIR H 2 00:45:11 04:19 13.92
11 1204 PIERRE-ANTOINE DEBRY SENIOR H 7 00:45:36 04:21 13.79
12 2430 VINCENT CESAR VETERAN 1 2 00:45:44 04:22 13.75
13 2315 LOIC BONSIR SENIOR H 8 00:46:26 04:26 13.54
14 2324 LAURENT BUFFET VETERAN 1 3 00:47:03 04:29 13.37
15 2382 OLIVIER MARROY SENIOR H 9 00:47:42 04:33 13.18
16 1226 JEAN-BAPTISTE NICOLAS SENIOR H 10 00:47:47 04:34 13.16
17 2374 ANNE DIEUDONNE AINÉE 1 1 00:47:59 04:35 13.11
18 2356 GERALD VINDEVOCEL SENIOR H 11 00:48:15 04:36 13.03
19 2322 STEPHANE OOSTLAND VETERAN 1 4 00:48:28 04:37 12.98
20 2357 NICOLAS SORAY SENIOR H 12 00:48:57 04:40 12.85
21 2307 JULIEN PETIT SENIOR H 13 00:49:01 04:41 12.83
22 1252 GUILLAUME FROMENT SENIOR H 14 00:49:03 04:41 12.82
23 2426 ERIC HANOTIAUX VÉTÉRAN 2 1 00:49:17 04:42 12.76
24 2310 MARIE JAUNIAUX AINÉE 1 2 00:49:26 04:43 12.72
25 2316 KEVIN BIAMONT VETERAN 1 5 00:49:56 04:46 12.59
26 2313 THOMAS WARNOTTE ESPOIR H 3 00:50:01 04:46 12.57
27 1255 PATRICK GENETTE VÉTÉRAN 2 2 00:50:14 04:48 12.52
28 1234 JONATHAN DAVID SENIOR H 15 00:50:44 04:50 12.40
29 2444 XAVIER OUTTERS SENIOR H 16 00:50:48 04:51 12.38
30 2431 GEOFFREY KEKELBERG SENIOR H 17 00:50:51 04:51 12.37
31 2397 PHILIP DEBOCK VETERAN 1 6 00:50:52 04:51 12.36
32 2319 SEBASTIEN ARNOULD SENIOR H 18 00:50:52 04:51 12.36
33 1300 DOROTHEE MEUR SENIOR D 2 00:50:52 04:51 12.36
34 2375 JEAN-YVES ACUSILAS VETERAN 1 7 00:50:52 04:51 12.36
35 1213 THIBAUT REIZER SENIOR H 19 00:51:19 04:54 12.25
36 1287 XAVIER DOTHEE VETERAN 1 8 00:51:42 04:56 12.16
37 2311 CELINE HUMBLET SENIOR D 3 00:52:05 04:58 12.07
38 1283 GERARD ZICOT VÉTÉRAN 2 3 00:52:14 04:59 12.04
39 2326 MORGAN PIRON SENIOR H 20 00:53:02 05:04 11.86
40 2333 MICHEL BAUDOIN VÉTÉRAN 2 4 00:53:23 05:06 11.78
41 1292 VINCENT LORENT VETERAN 1 9 00:53:24 05:06 11.78
42 2320 GREGORY GEENS VETERAN 1 10 00:53:34 05:07 11.74
43 1238 OLIVIER CARABIN SENIOR H 21 00:53:42 05:07 11.71
44 1486 SABINE VIGNERON AINÉE 2 1 00:53:47 05:08 11.69
45 1205 REMI PEULTIER VETERAN 3 1 00:53:48 05:08 11.69
46 2373 JONATHAN BELLARRE SENIOR H 22 00:54:01 05:09 11.64
47 1218 CATHERINE ELLEBOUDT SENIOR D 4 00:54:09 05:10 11.61
48 1241 JEAN-LOUIS MERCENIER VETERAN 1 11 00:54:09 05:10 11.61
49 1244 PATRICK DE SAEDELEER VETERAN 3 2 00:54:27 05:12 11.55
50 2370 GUY COOREMANS VÉTÉRAN 2 5 00:54:31 05:12 11.54
51 2437 GREGORY CHARLOT VETERAN 1 12 00:55:06 05:15 11.41
52 1284 ARNAUD MOURMAUX SENIOR H 23 00:56:15 05:22 11.18
53 2427 ALICE DAWICHE SENIOR D 5 00:56:34 05:24 11.12
54 2424 CLAUDE MALCOURANT VETERAN 3 3 00:56:37 05:24 11.11
55 2432 OLIVIER THEUNIS VETERAN 1 13 00:56:47 05:25 11.07
56 2378 CHRISTOPHE GALERE VETERAN 1 14 00:56:48 05:25 11.07
57 1258 MOIRA SCELFO SENIOR D 6 00:56:49 05:25 11.07
58 1231 JULIE BEMAL SENIOR D 7 00:56:52 05:26 11.06
59 1232 THIERRY MOSSELMANS SENIOR H 24 00:57:01 05:26 11.03
60 1249 MARIE-PAULE PELTGEN AINÉE 2 2 00:57:07 05:27 11.01
61 1245 ALICE VICAIRE SENIOR D 8 00:57:12 05:27 10.99
62 2312 PATRICIA LAMBREOMTS AINÉE 1 3 00:57:17 05:28 10.98
63 1202 LUCIANO COMANDINI VETERAN 3 4 00:57:24 05:29 10.96
64 2380 MICHAEL VANDENBERCHE VETERAN 1 15 00:57:25 05:29 10.95
65 2305 QUENTIN BALTHAZART VETERAN 1 16 00:57:26 05:29 10.95
66 2355 LAURENT CLERIN VÉTÉRAN 2 6 00:57:31 05:29 10.93
67 1298 DIDIER HOLOFFE VÉTÉRAN 2 7 00:58:03 05:32 10.83
68 1225 FLORE VANDENBROUCKE SENIOR D 9 00:58:06 05:33 10.82
69 1208 NICOLAS SIMON SENIOR H 25 00:58:25 05:34 10.77
70 1251 CAROLINE VANSTAPEL SENIOR D 10 00:58:33 05:35 10.74
71 2327 AMELIE GOMINS SENIOR D 11 00:58:41 05:36 10.72
72 2443 FRANCOIS-XAVIER DESPRRT VÉTÉRAN 2 8 00:58:44 05:36 10.71
73 2425 PHILIPPE RONNAUX VETERAN 1 17 00:58:50 05:37 10.69
74 2317 ARNAUD CORDENIER SENIOR H 26 00:58:54 05:37 10.68
75 2318 PAOLO PASUCH SENIOR H 27 00:58:54 05:37 10.68
76 2314 DANIEL MONMART VETERAN 3 5 00:58:58 05:38 10.66
77 2304 ANNE DELCROIX AINÉE 2 3 00:59:04 05:38 10.65
78 2422 VICTORE BOTTES ESPOIR H 4 00:59:09 05:39 10.63
79 2436 CARINE SEMAL SENIOR D 12 00:59:21 05:40 10.60
80 1387 JEAN-MARC GHERAILLE VÉTÉRAN 2 9 00:59:27 05:40 10.58
81 1239 RENAUD ANDRE VETERAN 1 18 00:59:58 05:43 10.49
82 1235 ANNE BEGUIN AINÉE 2 4 01:00:23 05:46 10.41
83 1209 JESSICA MAUS DE ROLLEY SENIOR D 13 01:00:29 05:46 10.40
84 2384 FIZED PEETERS SENIOR H 28 01:00:47 05:48 10.35
85 1285 JULIEN DOZIER SENIOR H 29 01:00:51 05:48 10.33
86 2423 VIVIANE SLIWINSKI AINÉE 3 1 01:00:52 05:48 10.33
87 1250 NICOLAS RAFFIN SENIOR H 30 01:01:45 05:53 10.18
88 1227 GILBERTE THIRY SENIOR D 14 01:01:47 05:54 10.18
89 1256 NICOLAS KRAMBOUSSANOS SENIOR H 31 01:02:16 05:56 10.10
90 375 MARTIN DRESEN SENIOR H 32 01:02:18 05:57 10.09
91 376 PIERRE CARTIAUX SENIOR H 33 01:02:18 05:57 10.09
92 2332 MARGAT PONZODA ESPOIR D 1 01:02:22 05:57 10.08
93 1220 CHRISTIANE ENSAY AINÉE 2 5 01:02:22 05:57 10.08
94 2386 CECILE HANSEZ SENIOR D 15 01:02:32 05:58 10.06
95 1297 ARTHUR ALEXANDRE ESPOIR H 5 01:03:01 06:01 9.98
96 1219 NICOLAS WEYNS SENIOR H 34 01:03:05 06:01 9.97
97 1240 MARC DEBOIS VETERAN 3 6 01:03:12 06:02 9.95
98 2372 LAURENT GRAINDORGE VETERAN 1 19 01:03:36 06:04 9.89
99 2445 THIBAUT PAGE SENIOR H 35 01:03:37 06:04 9.89
100 2379 ANNE LONNERS AINÉE 1 4 01:03:38 06:04 9.88
101 1216 EMELINE HUBERT SENIOR D 16 01:03:39 06:04 9.88
102 1253 FABRICE LEMAIRE VETERAN 1 20 01:04:22 06:08 9.77
103 2331 IVANA SOKOLOUSKA AINÉE 1 5 01:04:30 06:09 9.75
104 2330 STEFANIE LARMUSEAU AINÉE 1 6 01:04:30 06:09 9.75
105 1393 KATJA JOHNSON AINÉE 1 7 01:04:50 06:11 9.70
106 1398 JEAN-YVES MARTIN VETERAN 1 21 01:04:50 06:11 9.70
107 1246 FRANÇOISE AMBROSI AINÉE 1 8 01:05:18 06:14 9.63
108 2321 LUC FRERE AINÉE 1 9 01:06:11 06:19 9.50
109 1392 CEDRIC DEWILDE SENIOR H 36 01:06:13 06:19 9.50
110 1396 MARIE-ROSE CHEFFERT AINÉE 2 6 01:06:13 06:19 9.50
111 1391 ANNE DEWEZ AINÉE 1 10 01:06:14 06:19 9.49
112 2328 MAXIME BARBE SENIOR H 37 01:06:47 06:22 9.42
113 2329 PIERRE-NICOLAS DAYEZ SENIOR H 38 01:06:48 06:22 9.41
114 2323 GREGOEY BELIN SENIOR H 39 01:07:17 06:25 9.35
115 2442 SANDRINE FONTAINE AINÉE 1 11 01:07:59 06:29 9.25
116 2387 S LEGROS SENIOR D 17 01:08:17 06:31 9.21
117 1230 INGRID NOISET AINÉE 1 12 01:08:21 06:31 9.20
118 1243 FRANCOISE DE SAEDELEER AINÉE 3 2 01:08:29 06:32 9.18
119 1206 LAURENCE MARTIN AINÉE 1 13 01:08:50 06:34 9.14
120 1294 MARIE-FRANCOISE SOYEUR AINÉE 2 7 01:09:07 06:36 9.10
121 2300 LAURE VILLERET SENIOR D 18 01:10:09 06:42 8.96
122 1233 PASCALE SERVAIS AINÉE 2 8 01:10:30 06:44 8.92
123 1291 THOMAS ROQUET SENIOR H 40 01:10:39 06:44 8.90
124 1404 AMELIE VILRET SENIOR D 19 01:11:50 06:51 8.75
125 1395 STEPHANIE MIEVIS SENIOR D 20 01:11:51 06:51 8.75
126 1228 NIZAR REJAIBI SENIOR H 41 01:11:53 06:52 8.75
127 2440 MURIEL HEYMANS AINÉE 1 14 01:11:56 06:52 8.74
128 2371 PAOLA LUCIANO AINÉE 1 15 01:12:34 06:55 8.67
129 1224 SOPHIE FETTWEIS SENIOR D 21 01:12:35 06:56 8.66
130 2441 ISABELLE TASSOUL AINÉE 2 9 01:14:23 07:06 8.45
131 1223 NATACHA BODY AINÉE 1 16 01:14:54 07:09 8.40
132 2439 PATRICIA GYNRKO AINÉE 1 17 01:14:54 07:09 8.40
133 1222 NATHALIE GILLARD AINÉE 1 18 01:14:54 07:09 8.40
134 1237 MURIELLE PARMENTIER SENIOR D 22 01:15:14 07:11 8.36
135 1207 VIRGINIE LALOUX SENIOR D 23 01:15:22 07:11 8.34
136 2428 FRANCOISE LAURENT AINÉE 2 10 01:15:25 07:12 8.34
137 1295 FREDERIQUE AUSPERT AINÉE 1 19 01:17:15 07:22 8.14
138 1211 CHLOE SALTEUR SENIOR D 24 01:18:45 07:31 7.99
139 1400 NANCY MARTIN AINÉE 1 20 01:18:45 07:31 7.99
140 2429 JEAN-PHILIPPE BOORS VETERAN 1 22 01:18:46 07:31 7.98
141 2385 CAMILLE GROIGNET SENIOR H 42 01:18:52 07:31 7.97
142 2308 JULIE GREGOIRE SENIOR D 25 01:18:53 07:32 7.97
143 1377 EMMANUEL WAUQUAIRE VÉTÉRAN 2 10 01:24:27 08:03 7.45
144 1380 JOHAN DERDEYN VETERAN 1 23 01:24:27 08:03 7.45
145 1261 OLIVIER BRACKEVA VETERAN 1 24 01:24:44 08:05 7.42
146 1378 BENOIT ELAERTS VÉTÉRAN 2 11 01:24:44 08:05 7.42
147 1260 FREDERIC BOFFE VETERAN 1 25 01:24:45 08:05 7.42
148 1257 ALDO SCELFO VÉTÉRAN 2 12 01:24:54 08:06 7.41
149 1344 MURIEL KAYE SENIOR D 26 01:26:47 08:17 7.25
150 1346 ANGÉLIQUE KUPPENS SENIOR D 27 01:26:47 08:17 7.25
151 1212 BRIGITTE GOFFAUX AINÉE 2 11 01:26:55 08:18 7.24
152 2302 CATHERINE DEMAZY AINÉE 2 12 01:26:55 08:18 7.24
153 1464 CARINE CAT AINÉE 1 21 01:27:22 08:20 7.20
154 1304 SERGE CAPELLA VETERAN 3 7 01:28:31 08:27 7.10
155 1459 JEAN JANSEN VÉTÉRAN 2 13 01:28:35 08:27 7.10
156 1357 PASCAL MARTINOT VÉTÉRAN 2 14 01:28:37 08:27 7.10
157 1401 CHRISTINE HANOTIER AINÉE 2 13 01:28:40 08:28 7.09
158 1343 FABIAN FERRETTI VETERAN 1 26 01:30:10 08:36 6.97
159 1345 HUGUES ROLAND SENIOR H 43 01:30:10 08:36 6.97
160 1282 VIRGINIE JACQUET AINÉE 1 22 01:30:21 08:37 6.96
161 1286 CAROLINE FRANCKI SENIOR D 28 01:30:21 08:37 6.96
162 1279 CHRISTINE MERCENIER XXX   01:30:22 08:37 6.96
163 1470 DANIEL HARDY VETERAN 3 8 01:31:34 08:44 6.87
164 1432 JOLAN DELVAUX SENIOR H 44 01:36:53 09:15 6.49
165 1267 OLIVIER DETAILLE SENIOR H 45 01:36:54 09:15 6.49
166 1420 LUC DETAILLE VÉTÉRAN 2 15 01:36:54 09:15 6.49
167 1359 FRANÇOIS APPELDOORN SENIOR H 46 01:38:37 09:25 6.38
168 1305 ARNAUD ROLAND SENIOR H 47 01:38:37 09:25 6.38
169 1458 GAETAN ELOY SENIOR H 48 01:38:38 09:25 6.38
170 2435 NANCY DESONER AINÉE 1 23 01:39:40 09:31 6.31
171 2434 SILVIA CHRONEKOVA SENIOR D 29 01:39:41 09:31 6.31
172 2433 CATHERINE DELO AINÉE 1 24 01:39:41 09:31 6.31
173 1487 VALÉRIE BUGGENHOUT AINÉE 1 25 01:39:42 09:31 6.31
174 1478 SONIA GROGNET AINÉE 2 14 01:41:26 09:41 6.20
175 1477 FRANÇOISE DECOCQ AINÉE 2 15 01:41:27 09:41 6.20
176 1476 ERIC ROMERS VÉTÉRAN 2 16 01:41:27 09:41 6.20
177 1453 NATHALIE ELOY AINÉE 2 16 01:45:33 10:04 5.96
178 1265 ERIC GODERNIAUX VÉTÉRAN 2 17 01:45:34 10:04 5.96
179 1323 JEAN-MARC JANSSENS VÉTÉRAN 2 18 01:45:36 10:05 5.96
180 1489 JEAN-PHILIPPE MATHEISE VETERAN 1 27 01:51:41 10:39 5.63
181 1488 ROCIO PARRA AVILA AINÉE 1 26 01:51:42 10:39 5.63
182 1376 BENOIT ROISIN SENIOR H 49 01:57:44 11:14 5.34
183 1406 STÉPHANE BOREUX SENIOR H 50 01:57:44 11:14 5.34
184 2398 STEPHANE DOULIERE SENIOR H 51 02:00:02 11:27 5.24
185 1480 INGRID HENZ AINÉE 1 27 02:00:02 11:27 5.24
186 1469 LUCIE CAMBRON SENIOR D 30 02:00:03 11:27 5.24
187 1479 GERALD VAN WOENSEL VETERAN 1 28 02:00:03 11:27 5.24
188 1340 DAVID SKOLC VETERAN 1 29 02:02:46 11:43 5.12
189 1455 LAURENT DEHON VETERAN 1 30 02:02:51 11:43 5.12
190 1341 ALEXIS COSSEMENT VETERAN 1 31 02:02:56 11:44 5.12
191 1339 OLIVIER RUBAY VETERAN 1 32 02:03:17 11:46 5.10
192 1338 SÉBASTIEN BOURDOUXHE VETERAN 1 33 02:03:18 11:46 5.10
193 1352 JEAN CROON VÉTÉRAN 2 19 02:05:57 12:01 4.99
194 1365 ADRIEN RAHMEH SENIOR H 52 02:05:58 12:01 4.99
195 1364 DENISE PEETERS SENIOR D 31 02:06:49 12:06 4.96
196 1336 PATRICK LEONARD VÉTÉRAN 2 20 02:06:49 12:06 4.96
197 1334 THOMAS LEGRAND SENIOR H 53 02:14:51 12:52 4.66
198 1328 THOMAS CORNET SENIOR H 54 02:14:51 12:52 4.66
199 1405 JULIEN PAQUET SENIOR H 55 02:15:45 12:57 4.63
200 1403 STEPHANIE DECLAYE SENIOR D 32 02:15:47 12:57 4.63
201 1497 AURELIE HEEREN SENIOR D 33 02:15:58 12:58 4.63
202 1259 NATASSIA SCHUTZ SENIOR D 34 02:16:04 12:59 4.62
203 1440 VIRGINIE PRIOUL SENIOR D 35 02:16:05 12:59 4.62
204 1349 FLORIAN DELABIE SENIOR H 56 02:24:14 13:46 4.36
205 1264 DENIS LEBAILLY SENIOR H 57 02:24:14 13:46 4.36
206 1373 ALEXANDRE STOUFFS SENIOR H 58 02:25:03 13:50 4.34
207 1374 LOUIS DE VIRON SENIOR H 59 02:25:07 13:51 4.33
208 1372 SÉBASTIEN JOINE SENIOR H 60 02:25:13 13:51 4.33
209 1474 FÉLIX BAUDOIN VETERAN 1 34 02:25:56 13:55 4.31
210 1353 PIERRE-YVES MARCHAL VETERAN 1 35 02:26:29 13:59 4.29
211 1379 MANDY BAUDUIN SENIOR D 36 02:26:33 13:59 4.29
212 1313 CORINNE LIEFFERINCKX AINÉE 1 28 02:26:37 13:59 4.29
213 2446 MIREILLE HUET SENIOR D 37 02:26:39 14:00 4.29
214 1312 LAURENT ROBAYE VETERAN 1 36 02:26:40 14:00 4.29
215 1317 AURÉLIE NYSTEN SENIOR D 38 02:26:46 14:00 4.28
216 1381 NICOLAS OGER SENIOR H 61 02:26:47 14:00 4.28
217 1362 FRÉDÉRIC DENIS VETERAN 1 37 02:27:03 14:02 4.28
218 1326 CEDRIC BERTRAND SENIOR H 62 02:27:04 14:02 4.28
219 1485 MARIE-EVE BINI SENIOR D 39 02:27:15 14:03 4.27
220 1351 NICOLAS BOULANGER VETERAN 1 38 02:27:15 14:03 4.27
221 1466 VIRGINIE WILMET SENIOR D 40 02:27:15 14:03 4.27
222 1475 GÉRALDINE FIASSE AINÉE 1 29 02:27:43 14:06 4.26
223 1471 GÉRALDINE MACAUX SENIOR D 41 02:27:44 14:06 4.26
224 1472 DAMIEN DEPREZ VETERAN 1 39 02:27:44 14:06 4.26
225 1496 DENIS DUCHENE SENIOR H 63 02:28:15 14:09 4.24
226 1306 GÉRALD COLINET SENIOR H 64 02:28:19 14:09 4.24
227 1407 LAURENCE MEAUX SENIOR D 42 02:28:20 14:09 4.24
228 1302 MAURINE DODORICO SENIOR D 43 02:28:29 14:10 4.24
229 1366 FLORIAN VANOVERSCHELDE SENIOR H 65 02:28:31 14:10 4.23
230 1382 GREGORY MURER VETERAN 1 40 02:31:59 14:30 4.14
231 1361 AUDREY VAN SANT SENIOR D 44 02:32:05 14:31 4.13
232 1322 NATHALIE VIERSET SENIOR D 45 02:32:06 14:31 4.13
233 1367 EVELYNE BENATS SENIOR D 46 02:46:15 15:52 3.78
234 1358 ANNE-MICHÈLE RIGAUX SENIOR D 47 02:46:16 15:52 3.78
235 1467 CÉLINE THONNART SENIOR D 48 02:48:07 16:02 3.74
236 1499 RAPHAEL PHOLIEN VETERAN 1 41 02:48:07 16:02 3.74
237 1498 HELENE WILMOTTE SENIOR D 49 02:48:08 16:02 3.74
238 1468 SÉBASTIEN ROBAYE VETERAN 1 42 02:48:09 16:03 3.74
239 1456 STEPHANIE DE NIET SENIOR D 50 03:05:16 17:41 3.39
240 1457 MARIE BIRAL SENIOR D 51 03:05:17 17:41 3.39
241 1307 THOMAS MAGNY SENIOR H 66 03:06:19 17:47 3.38
242 1337 BRIAN CONSOLIN SENIOR H 67 03:10:15 18:09 3.31
243 1327 STEFFI THIROUX SENIOR D 52 03:10:17 18:09 3.30
244 1463 GUERINO D'ONOFRIO SENIOR H 68 03:11:43 18:18 3.28
245 1385 MURIEL PACORUS AINÉE 1 30 03:13:48 18:29 3.24
246 1462 SOPHIE PAQUET SENIOR D 53 03:13:57 18:30 3.24
247 1384 VIRGINIE TEVEL SENIOR D 54 03:13:58 18:30 3.24
248 1383 PASCALE DUMONT AINÉE 1 31 03:16:08 18:43 3.21
249 1301 NATHALIE TAYMANS AINÉE 1 32 03:16:09 18:43 3.21
250 1447 FRANÇOIS DANZE SENIOR H 69 03:19:08 19:00 3.16
251 1442 AUDE PHILIPPON SENIOR D 55 03:19:14 19:01 3.16
252 1424 CINDY GILLET SENIOR D 56 03:19:15 19:01 3.16
253 1423 CATHERINE VANDEVENNE SENIOR D 57 03:19:16 19:01 3.16
254 1421 MATHIEU DUBOIS SENIOR H 70 03:19:24 19:01 3.15
255 1445 VALENTINE NOEL SENIOR D 58 03:21:47 19:15 3.12
256 1446 MARIE NOEL SENIOR D 59 03:21:47 19:15 3.12
257 1433 MANON DEROISY SENIOR D 60 03:21:47 19:15 3.12
258 1431 PAULINE DAVID SENIOR D 61 03:21:48 19:15 3.12
259 1434 STÉPHANIE GEORGES SENIOR D 62 03:21:48 19:15 3.12
260 1454 SARAH GOFFAUX ESPOIR D 2 03:21:48 19:15 3.12
261 1342 MAIRY CHAINIAUX SENIOR D 63 03:21:48 19:15 3.12
262 1416 CLAUDE DETHIER VÉTÉRAN 2 21 03:21:49 19:15 3.12
263 1415 SONIA DELHAISE AINÉE 1 33 03:21:50 19:15 3.12
264 1203 CLARA MATERNE SENIOR D 64 03:21:50 19:15 3.12
265 1437 TIPHANIE DUCHENE SENIOR D 65 03:21:51 19:16 3.12
266 1414 MARIE-LAURE GOFFIN SENIOR D 66 03:21:52 19:16 3.12
267 1438 BARBARA DENEFFE SENIOR D 67 03:21:52 19:16 3.12
268 1413 ALLAN MALHERBE SENIOR H 71 03:21:54 19:16 3.11
269 1439 DENIS MARLIERE SENIOR H 72 03:21:59 19:16 3.11
270 1347 PIERRE BRAIVE SENIOR H 73 03:29:21 19:58 3.00
271 1320 PASCALE DUBRAY SENIOR D 68 03:29:22 19:59 3.00
272 1348 VANESSA BABINGTON SENIOR D 69 03:29:23 19:59 3.00
273 1500 LINE THYSEBAERT SENIOR D 70 03:29:23 19:59 3.00
274 1318 CHRISTOPHE PREUD'HOMME VETERAN 1 43 03:29:23 19:59 3.00
275 1319 SYLVIE LIBAN AINÉE 1 34 03:29:24 19:59 3.00
276 1329 JEAN-GUY PECHER SENIOR H 74 03:32:14 20:15 2.96
277 1333 JONATHAN VERRIEST SENIOR H 75 03:32:16 20:15 2.96
278 1330 MAXIMILIEN GHIGNY SENIOR H 76 03:32:17 20:15 2.96
279 1331 THOMAAZ HENDRICK SENIOR H 77 03:32:18 20:15 2.96